Location: El Carrer d�Abaix
(41.5797°N, 2.1791°E)
Time: 21:48:18
(UTC+00:00)

Cosmos 2082 Rocket - Pass Details

Date: 06 October 2020
Orbit: 834 x 853 km, 71.0° (Epoch: 27 October)

Event Time Altitude Azimuth Distance (km) Brightness Sun altitude
Rises 18:03:02 0° 339° (NNW) 3,394 5.6 -8.1°
Reaches altitude 10° 18:05:32 10° 343° (NNW) 2,458 4.9 -8.6°
Maximum altitude 18:11:05 59° 63° (ENE) 970 2.3 -9.6°
Drops below altitude 10° 18:16:38 10° 142° (SE) 2,455 4.2 -10.6°
Sets 18:19:07 0° 146° (SSE) 3,389 5.0 -11.1°
